STARLINK-1911, 46749

Orbit data source: Space-Track

STARLINK-1911, 46749 is a payload satellite owned by SpaceX/Seattle (US) in LEO that was launched on Sat, 24 Oct 2020 UTC via an FALCON 9 launch vehicle from the Air Force Eastern Test Range (AFETR). Payload-class satellites include a variety of spacecraft equipped with specific instruments for various scientific and technological missions. These include communications satellites like Starlink; space stations such as the ISS; scientific satellites like the Hubble; Earth observation satellites from companies like Planet Labs, Umbra, and HawkEye 360; GPS; miniature CubeSats for education and research; and military/defense satellites.

Loading next visibility...
Identifier
46749, 2020-074L
Orbit
LEO
Country
Flag of USUS
Related business
Manufacturer
SpaceX/Seattle
Mission
Operational Commercial Communications
Bus & Motor
STARLINK, Unknown motor
Mass
260 kg wet, ~248 kg dry
Launch date (UTC)
2020-10-24 (5 years ago)
Launch vehicle
FALCON 9
Launch site
Air Force Eastern Test Range (AFETR)
Object type
Payload
Rocket body
Debris
Shape & HBR
Box + 1 Pan, 10.1 m
Radar Cross Section
13.562 m², Large (>1 m²)

Expand to show TLE details & history
Last TLE update: 16 hours ago

TLE from 16 hours ago
0 STARLINK-1911
1 46749U 20074L   25286.66592646  .00001906  00000-0  14680-3 0  9998
2 46749  53.0549 261.6324 0001530  90.1751 269.9413 15.06402265274518
Epoch: 2025-10-13T15:58Z
TLE epoch observation values (Epoch: 2025-10-13T15:58:56.046Z)
Latitude
-0.00003°
Longitude
-0.56659°
Altitude
548.085 km
Speed
7.589 km/s
True Right ascension
17h 26m 31s
True Declination
0° 00' 00"
Sunlit
Object was in daylight at epoch
Visualization orbit readout
Latitude
Unknown
Longitude
Unknown
Altitude
Unknown
Speed
Unknown
Apparent Right ascension
Unknown
Apparent Declination
Unknown
Sunlit
N/A
Visualization observer readout
Local Sidereal Time
02:42:09
Azimuth
Unknown
Elevation
Unknown
Doppler factor
Unknown
Orbital elements
Apogee altitude
548.535 km
Perigee altitude
546.416 km
Semi-major axis
6,925.612 km
Eccentricity
0.00015
Inclination
53.0549°
RAAN
261.6324°
Arg. of periapsis
90.1751°
True anomaly
269.92377°
Mean anomaly
269.9413°
Eccentric anomaly
269.93253°
Mean motion
3.76579 °/min
Orbital period
95.6 mins
BSTAR
0.0001468
Loading maneuver chart data...
Computing Atmospheric mass density...

Documentation

Showing up to 5 results
|